Year,Month,Day,Hour,Minute,Value (Times are PST for temperature in C)
2017,10,27,00,00,7.70
2017,10,27,00,01,7.70
2017,10,27,00,02,7.70
2017,10,27,00,03,7.70
2017,10,27,00,04,7.60
2017,10,27,00,05,7.60
2017,10,27,00,06,7.60
2017,10,27,00,07,7.60
2017,10,27,00,08,7.60
2017,10,27,00,09,7.60
2017,10,27,00,10,7.60
2017,10,27,00,11,7.60
2017,10,27,00,12,7.70
2017,10,27,00,13,7.70
2017,10,27,00,14,7.70
2017,10,27,00,15,7.70
2017,10,27,00,16,7.80
2017,10,27,00,17,7.80
2017,10,27,00,18,7.80
2017,10,27,00,19,7.80
2017,10,27,00,20,7.90
2017,10,27,00,21,7.90
2017,10,27,00,22,7.90
2017,10,27,00,23,8.00
2017,10,27,00,24,8.00
2017,10,27,00,25,8.10
2017,10,27,00,26,8.10
2017,10,27,00,27,8.10
2017,10,27,00,28,8.10
2017,10,27,00,29,8.10
2017,10,27,00,30,8.10
2017,10,27,00,31,8.10
2017,10,27,00,32,8.10
2017,10,27,00,33,8.10
2017,10,27,00,34,8.20
2017,10,27,00,35,8.20
2017,10,27,00,36,8.20
2017,10,27,00,37,8.20
2017,10,27,00,38,8.20
2017,10,27,00,39,8.20
2017,10,27,00,40,8.20
2017,10,27,00,41,8.20
2017,10,27,00,42,8.10
2017,10,27,00,43,8.10
2017,10,27,00,44,8.00
2017,10,27,00,45,7.90
2017,10,27,00,46,7.80
2017,10,27,00,47,7.80
2017,10,27,00,48,7.70
2017,10,27,00,49,7.70
2017,10,27,00,50,7.60
2017,10,27,00,51,7.60
2017,10,27,00,52,7.50
2017,10,27,00,53,7.50
2017,10,27,00,54,7.50
2017,10,27,00,55,7.40
2017,10,27,00,56,7.40
2017,10,27,00,57,7.40
2017,10,27,00,58,7.40
2017,10,27,00,59,7.40
2017,10,27,01,00,7.40
2017,10,27,01,01,7.40
2017,10,27,01,02,7.40
2017,10,27,01,03,7.40
2017,10,27,01,04,7.40
2017,10,27,01,05,7.40
2017,10,27,01,06,7.50
2017,10,27,01,07,7.50
2017,10,27,01,08,7.50
2017,10,27,01,09,7.50
2017,10,27,01,10,7.50
2017,10,27,01,11,7.50
2017,10,27,01,12,7.50
2017,10,27,01,13,7.40
2017,10,27,01,14,7.40
2017,10,27,01,15,7.30
2017,10,27,01,16,7.30
2017,10,27,01,17,7.30
2017,10,27,01,18,7.20
2017,10,27,01,19,7.20
2017,10,27,01,20,7.20
2017,10,27,01,21,7.20
2017,10,27,01,22,7.20
2017,10,27,01,23,7.10
2017,10,27,01,24,7.10
2017,10,27,01,25,7.10
2017,10,27,01,26,7.10
2017,10,27,01,27,7.00
2017,10,27,01,28,7.00
2017,10,27,01,29,7.00
2017,10,27,01,30,7.00
2017,10,27,01,31,7.00
2017,10,27,01,32,7.00
2017,10,27,01,33,7.00
2017,10,27,01,34,7.00
2017,10,27,01,35,7.00
2017,10,27,01,36,7.00
2017,10,27,01,37,7.00
2017,10,27,01,38,7.00
2017,10,27,01,39,7.00
2017,10,27,01,40,7.00
2017,10,27,01,41,7.00
2017,10,27,01,42,7.00
2017,10,27,01,43,7.00
2017,10,27,01,44,7.00
2017,10,27,01,45,7.00
2017,10,27,01,46,6.90
2017,10,27,01,47,6.90
2017,10,27,01,48,6.90
2017,10,27,01,49,6.90
2017,10,27,01,50,6.90
2017,10,27,01,51,6.90
2017,10,27,01,52,6.80
2017,10,27,01,53,6.80
2017,10,27,01,54,6.80
2017,10,27,01,55,6.80
2017,10,27,01,56,6.80
2017,10,27,01,57,6.70
2017,10,27,01,58,6.70
2017,10,27,01,59,6.70
2017,10,27,02,00,6.70
2017,10,27,02,01,6.70
2017,10,27,02,02,6.70
2017,10,27,02,03,6.70
2017,10,27,02,04,6.70
2017,10,27,02,05,6.70
2017,10,27,02,06,6.80
2017,10,27,02,07,6.80
2017,10,27,02,08,6.80
2017,10,27,02,09,6.80
2017,10,27,02,10,6.80
2017,10,27,02,11,6.80
2017,10,27,02,12,6.80
2017,10,27,02,13,6.80
2017,10,27,02,14,6.80
2017,10,27,02,15,6.80
2017,10,27,02,16,6.80
2017,10,27,02,17,6.80
2017,10,27,02,18,6.80
2017,10,27,02,19,6.80
2017,10,27,02,20,6.80
2017,10,27,02,21,6.80
2017,10,27,02,22,6.80
2017,10,27,02,23,6.80
2017,10,27,02,24,6.80
2017,10,27,02,25,6.80
2017,10,27,02,26,6.80
2017,10,27,02,27,6.80
2017,10,27,02,28,6.80
2017,10,27,02,29,6.80
2017,10,27,02,30,6.80
2017,10,27,02,31,6.80
2017,10,27,02,32,6.80
2017,10,27,02,33,6.70
2017,10,27,02,34,6.70
2017,10,27,02,35,6.70
2017,10,27,02,36,6.70
2017,10,27,02,37,6.70
2017,10,27,02,38,6.70
2017,10,27,02,39,6.70
2017,10,27,02,40,6.70
2017,10,27,02,41,6.70
2017,10,27,02,42,6.70
2017,10,27,02,43,6.70
2017,10,27,02,44,6.70
2017,10,27,02,45,6.70
2017,10,27,02,46,6.70
2017,10,27,02,47,6.70
2017,10,27,02,48,6.70
2017,10,27,02,49,6.80
2017,10,27,02,50,6.80
2017,10,27,02,51,6.80
2017,10,27,02,52,6.80
2017,10,27,02,53,6.80
2017,10,27,02,54,6.80
2017,10,27,02,55,6.80
2017,10,27,02,56,6.80
2017,10,27,02,57,6.80
2017,10,27,02,58,6.80
2017,10,27,02,59,6.80
2017,10,27,03,00,6.80
2017,10,27,03,01,6.70
2017,10,27,03,02,6.70
2017,10,27,03,03,6.70
2017,10,27,03,04,6.70
2017,10,27,03,05,6.80
2017,10,27,03,06,6.80
2017,10,27,03,07,6.80
2017,10,27,03,08,6.80
2017,10,27,03,09,6.80
2017,10,27,03,10,6.80
2017,10,27,03,11,6.70
2017,10,27,03,12,6.70
2017,10,27,03,13,6.70
2017,10,27,03,14,6.70
2017,10,27,03,15,6.70
2017,10,27,03,16,6.70
2017,10,27,03,17,6.70
2017,10,27,03,18,6.70
2017,10,27,03,19,6.70
2017,10,27,03,20,6.70
2017,10,27,03,21,6.70
2017,10,27,03,22,6.60
2017,10,27,03,23,6.60
2017,10,27,03,24,6.60
2017,10,27,03,25,6.60
2017,10,27,03,26,6.60
2017,10,27,03,27,6.60
2017,10,27,03,28,6.60
2017,10,27,03,29,6.60
2017,10,27,03,30,6.60
2017,10,27,03,31,6.70
2017,10,27,03,32,6.70
2017,10,27,03,33,6.70
2017,10,27,03,34,6.70
2017,10,27,03,35,6.70
2017,10,27,03,36,6.70
2017,10,27,03,37,6.70
2017,10,27,03,38,6.70
2017,10,27,03,39,6.70
2017,10,27,03,40,6.70
2017,10,27,03,41,6.70
2017,10,27,03,42,6.70
2017,10,27,03,43,6.70
2017,10,27,03,44,6.70
2017,10,27,03,45,6.70
2017,10,27,03,46,6.70
2017,10,27,03,47,6.70
2017,10,27,03,48,6.70
2017,10,27,03,49,6.70
2017,10,27,03,50,6.70
2017,10,27,03,51,6.70
2017,10,27,03,52,6.70
2017,10,27,03,53,6.80
2017,10,27,03,54,6.80
2017,10,27,03,55,6.80
2017,10,27,03,56,6.80
2017,10,27,03,57,6.80
2017,10,27,03,58,6.80
2017,10,27,03,59,6.80
2017,10,27,04,00,6.80
2017,10,27,04,01,6.80
2017,10,27,04,02,6.80
2017,10,27,04,03,6.80
2017,10,27,04,04,6.80
2017,10,27,04,05,6.80
2017,10,27,04,06,6.70
2017,10,27,04,07,6.70
2017,10,27,04,08,6.70
2017,10,27,04,09,6.70
2017,10,27,04,10,6.70
2017,10,27,04,11,6.80
2017,10,27,04,12,6.80
2017,10,27,04,13,6.80
2017,10,27,04,14,6.80
2017,10,27,04,15,6.80
2017,10,27,04,16,6.80
2017,10,27,04,17,6.90
2017,10,27,04,18,7.00
2017,10,27,04,19,7.10
2017,10,27,04,20,7.10
2017,10,27,04,21,7.10
2017,10,27,04,22,7.10
2017,10,27,04,23,7.10
2017,10,27,04,24,7.10
2017,10,27,04,25,7.10
2017,10,27,04,26,7.10
2017,10,27,04,27,7.10
2017,10,27,04,28,7.10
2017,10,27,04,29,7.20
2017,10,27,04,30,7.20
2017,10,27,04,31,7.20
2017,10,27,04,32,7.20
2017,10,27,04,33,7.20
2017,10,27,04,34,7.20
2017,10,27,04,35,7.20
2017,10,27,04,36,7.20
2017,10,27,04,37,7.20
2017,10,27,04,38,7.20
2017,10,27,04,39,7.20
2017,10,27,04,40,7.20
2017,10,27,04,41,7.20
2017,10,27,04,42,7.10
2017,10,27,04,43,7.10
2017,10,27,04,44,7.10
2017,10,27,04,45,7.10
2017,10,27,04,46,7.10
2017,10,27,04,47,7.00
2017,10,27,04,48,7.00
2017,10,27,04,49,6.90
2017,10,27,04,50,6.90
2017,10,27,04,51,6.80
2017,10,27,04,52,6.80
2017,10,27,04,53,6.70
2017,10,27,04,54,6.70
2017,10,27,04,55,6.70
2017,10,27,04,56,6.70
2017,10,27,04,57,6.60
2017,10,27,04,58,6.60
2017,10,27,04,59,6.60
2017,10,27,05,00,6.60
2017,10,27,05,01,6.50
2017,10,27,05,02,6.50
2017,10,27,05,03,6.50
2017,10,27,05,04,6.50
2017,10,27,05,05,6.50
2017,10,27,05,06,6.50
2017,10,27,05,07,6.50
2017,10,27,05,08,6.60
2017,10,27,05,09,6.70
2017,10,27,05,10,6.70
2017,10,27,05,11,6.70
2017,10,27,05,12,6.80
2017,10,27,05,13,6.80
2017,10,27,05,14,6.80
2017,10,27,05,15,6.80
2017,10,27,05,16,6.80
2017,10,27,05,17,6.80
2017,10,27,05,18,6.70
2017,10,27,05,19,6.80
2017,10,27,05,20,6.80
2017,10,27,05,21,6.80
2017,10,27,05,22,6.90
2017,10,27,05,23,7.00
2017,10,27,05,24,7.10
2017,10,27,05,25,7.20
2017,10,27,05,26,7.20
2017,10,27,05,27,7.30
2017,10,27,05,28,7.30
2017,10,27,05,29,7.40
2017,10,27,05,30,7.50
2017,10,27,05,31,7.50
2017,10,27,05,32,7.60
2017,10,27,05,33,7.70
2017,10,27,05,34,7.80
2017,10,27,05,35,7.90
2017,10,27,05,36,7.90
2017,10,27,05,37,8.00
2017,10,27,05,38,8.00
2017,10,27,05,39,8.10
2017,10,27,05,40,8.10
2017,10,27,05,41,8.20
2017,10,27,05,42,8.20
2017,10,27,05,43,8.30
2017,10,27,05,44,8.40
2017,10,27,05,45,8.50
2017,10,27,05,46,8.50
2017,10,27,05,47,8.60
2017,10,27,05,48,8.60
2017,10,27,05,49,8.70
2017,10,27,05,50,8.70
2017,10,27,05,51,8.70
2017,10,27,05,52,8.70
2017,10,27,05,53,8.80
2017,10,27,05,54,8.80
2017,10,27,05,55,8.80
2017,10,27,05,56,8.90
2017,10,27,05,57,8.90
2017,10,27,05,58,9.00
2017,10,27,05,59,9.00
2017,10,27,06,00,9.00
2017,10,27,06,01,9.00
2017,10,27,06,02,9.00
2017,10,27,06,03,9.00
2017,10,27,06,04,9.00
2017,10,27,06,05,9.10
2017,10,27,06,06,9.20
2017,10,27,06,07,9.30
2017,10,27,06,08,9.30
2017,10,27,06,09,9.40
2017,10,27,06,10,9.40
2017,10,27,06,11,9.50
2017,10,27,06,12,9.50
2017,10,27,06,13,9.50
2017,10,27,06,14,9.60
2017,10,27,06,15,9.60
2017,10,27,06,16,9.60
2017,10,27,06,17,9.60
2017,10,27,06,18,9.60
2017,10,27,06,19,9.60
2017,10,27,06,20,9.70
2017,10,27,06,21,9.70
2017,10,27,06,22,9.80
2017,10,27,06,23,9.90
2017,10,27,06,24,9.90
2017,10,27,06,25,10.00
2017,10,27,06,26,10.10
2017,10,27,06,27,10.10
2017,10,27,06,28,10.10
2017,10,27,06,29,10.20
2017,10,27,06,30,10.20
2017,10,27,06,31,10.20
2017,10,27,06,32,10.20
2017,10,27,06,33,10.20
2017,10,27,06,34,10.30
2017,10,27,06,35,10.30
2017,10,27,06,36,10.30
2017,10,27,06,37,10.30
2017,10,27,06,38,10.30
2017,10,27,06,39,10.40
2017,10,27,06,40,10.40
2017,10,27,06,41,10.40
2017,10,27,06,42,10.40
2017,10,27,06,43,10.50
2017,10,27,06,44,10.50
2017,10,27,06,45,10.60
2017,10,27,06,46,10.60
2017,10,27,06,47,10.60
2017,10,27,06,48,10.60
2017,10,27,06,49,10.60
2017,10,27,06,50,10.60
2017,10,27,06,51,10.70
2017,10,27,06,52,10.70
2017,10,27,06,53,10.70
2017,10,27,06,54,10.70
2017,10,27,06,55,10.70
2017,10,27,06,56,10.80
2017,10,27,06,57,10.80
2017,10,27,06,58,10.80
2017,10,27,06,59,10.80
2017,10,27,07,00,10.80
2017,10,27,07,01,10.90
2017,10,27,07,02,10.90
2017,10,27,07,03,10.90
2017,10,27,07,04,10.90
2017,10,27,07,05,10.90
2017,10,27,07,06,10.90
2017,10,27,07,07,10.90
2017,10,27,07,08,10.90
2017,10,27,07,09,10.90
2017,10,27,07,10,10.90
2017,10,27,07,11,10.90
2017,10,27,07,12,10.90
2017,10,27,07,13,10.90
2017,10,27,07,14,10.90
2017,10,27,07,15,10.90
2017,10,27,07,16,10.90
2017,10,27,07,17,10.90
2017,10,27,07,18,10.90
2017,10,27,07,19,10.90
2017,10,27,07,20,10.80
2017,10,27,07,21,10.80
2017,10,27,07,22,10.80
2017,10,27,07,23,10.80
2017,10,27,07,24,10.80
2017,10,27,07,25,10.80
2017,10,27,07,26,10.80
2017,10,27,07,27,10.80
2017,10,27,07,28,10.80
2017,10,27,07,29,10.80
2017,10,27,07,30,10.80
2017,10,27,07,31,10.80
2017,10,27,07,32,10.70
2017,10,27,07,33,10.70
2017,10,27,07,34,10.70
2017,10,27,07,35,10.70
2017,10,27,07,36,10.70
2017,10,27,07,37,10.60
2017,10,27,07,38,10.60
2017,10,27,07,39,10.60
2017,10,27,07,40,10.60
2017,10,27,07,41,10.60
2017,10,27,07,42,10.50
2017,10,27,07,43,10.50
2017,10,27,07,44,10.50
2017,10,27,07,45,10.40
2017,10,27,07,46,10.40
2017,10,27,07,47,10.40
2017,10,27,07,48,10.40
2017,10,27,07,49,10.40
2017,10,27,07,50,10.40
2017,10,27,07,51,10.40
2017,10,27,07,52,10.40
2017,10,27,07,53,10.30
2017,10,27,07,54,10.30
2017,10,27,07,55,10.30
2017,10,27,07,56,10.30
2017,10,27,07,57,10.30
2017,10,27,07,58,10.30
2017,10,27,07,59,10.30
2017,10,27,08,00,10.20
2017,10,27,08,01,10.20
2017,10,27,08,02,10.20
2017,10,27,08,03,10.10
2017,10,27,08,04,10.10
2017,10,27,08,05,10.10
2017,10,27,08,06,10.00
2017,10,27,08,07,10.00
2017,10,27,08,08,10.00
2017,10,27,08,09,9.90
2017,10,27,08,10,9.90
2017,10,27,08,11,9.90
2017,10,27,08,12,9.90
2017,10,27,08,13,9.90
2017,10,27,08,14,9.90
2017,10,27,08,15,9.90
2017,10,27,08,16,9.90
2017,10,27,08,17,9.90
2017,10,27,08,18,10.00
2017,10,27,08,19,10.00
2017,10,27,08,20,10.00
2017,10,27,08,21,10.10
2017,10,27,08,22,10.10
2017,10,27,08,23,10.10
2017,10,27,08,24,10.10
2017,10,27,08,25,10.20
2017,10,27,08,26,10.20
2017,10,27,08,27,10.20
2017,10,27,08,28,10.20
2017,10,27,08,29,10.30
2017,10,27,08,30,10.30
2017,10,27,08,31,10.40
2017,10,27,08,32,10.40
2017,10,27,08,33,10.50
2017,10,27,08,34,10.50
2017,10,27,08,35,10.60
2017,10,27,08,36,10.70
2017,10,27,08,37,10.80
2017,10,27,08,38,10.80
2017,10,27,08,39,10.80
2017,10,27,08,40,10.90
2017,10,27,08,41,10.90
2017,10,27,08,42,11.00
2017,10,27,08,43,11.00
2017,10,27,08,44,11.00
2017,10,27,08,45,11.10
2017,10,27,08,46,11.10
2017,10,27,08,47,11.10
2017,10,27,08,48,11.20
2017,10,27,08,49,11.20
2017,10,27,08,50,11.30
2017,10,27,08,51,11.30
2017,10,27,08,52,11.40
2017,10,27,08,53,11.50
2017,10,27,08,54,11.60
2017,10,27,08,55,11.70
2017,10,27,08,56,11.70
2017,10,27,08,57,11.70
2017,10,27,08,58,11.80
2017,10,27,08,59,11.80
2017,10,27,09,00,11.90
2017,10,27,09,01,12.00
2017,10,27,09,02,12.10
2017,10,27,09,03,12.10
2017,10,27,09,04,12.20
2017,10,27,09,05,12.30
2017,10,27,09,06,12.40
2017,10,27,09,07,12.50
2017,10,27,09,08,12.60
2017,10,27,09,09,12.60
2017,10,27,09,10,12.70
2017,10,27,09,11,12.70
2017,10,27,09,12,12.70
2017,10,27,09,13,12.70
2017,10,27,09,14,12.70
2017,10,27,09,15,12.70
2017,10,27,09,16,12.80
2017,10,27,09,17,12.80
2017,10,27,09,18,12.80
2017,10,27,09,19,12.80
2017,10,27,09,20,12.80
2017,10,27,09,21,12.80
2017,10,27,09,22,12.90
2017,10,27,09,23,13.00
2017,10,27,09,24,13.00
2017,10,27,09,25,13.10
2017,10,27,09,26,13.10
2017,10,27,09,27,13.20
2017,10,27,09,28,13.20
2017,10,27,09,29,13.30
2017,10,27,09,30,13.30
2017,10,27,09,31,13.30
2017,10,27,09,32,13.40
2017,10,27,09,33,13.40
2017,10,27,09,34,13.50
2017,10,27,09,35,13.50
2017,10,27,09,36,13.50
2017,10,27,09,37,13.50
2017,10,27,09,38,13.40
2017,10,27,09,39,13.40
2017,10,27,09,40,13.40
2017,10,27,09,41,13.30
2017,10,27,09,42,13.30
2017,10,27,09,43,13.20
2017,10,27,09,44,13.20
2017,10,27,09,45,13.20
2017,10,27,09,46,13.20
2017,10,27,09,47,13.20
2017,10,27,09,48,13.20
2017,10,27,09,49,13.20
2017,10,27,09,50,13.20
2017,10,27,09,51,13.30
2017,10,27,09,52,13.30
2017,10,27,09,53,13.40
2017,10,27,09,54,13.40
2017,10,27,09,55,13.50
2017,10,27,09,56,13.50
2017,10,27,09,57,13.60
2017,10,27,09,58,13.70
2017,10,27,09,59,13.80
2017,10,27,10,00,13.90
2017,10,27,10,01,13.90
2017,10,27,10,02,14.00
2017,10,27,10,03,14.10
2017,10,27,10,04,14.10
2017,10,27,10,05,14.20
2017,10,27,10,06,14.20
2017,10,27,10,07,14.30
2017,10,27,10,08,14.30
2017,10,27,10,09,14.40
2017,10,27,10,10,14.40
2017,10,27,10,11,14.30
2017,10,27,10,12,14.20
2017,10,27,10,13,14.10
2017,10,27,10,14,14.00
2017,10,27,10,15,13.90
2017,10,27,10,16,13.90
2017,10,27,10,17,13.80
2017,10,27,10,18,13.70
2017,10,27,10,19,13.60
2017,10,27,10,20,13.60
2017,10,27,10,21,13.60
2017,10,27,10,22,13.60
2017,10,27,10,23,13.70
2017,10,27,10,24,13.70
2017,10,27,10,25,13.80
2017,10,27,10,26,13.80
2017,10,27,10,27,13.90
2017,10,27,10,28,13.90
2017,10,27,10,29,13.80
2017,10,27,10,30,13.80
2017,10,27,10,31,13.80
2017,10,27,10,32,13.70
2017,10,27,10,33,13.50
2017,10,27,10,34,13.30
2017,10,27,10,35,13.10
2017,10,27,10,36,13.00
2017,10,27,10,37,12.90
2017,10,27,10,38,12.80
2017,10,27,10,39,12.80
2017,10,27,10,40,12.80
2017,10,27,10,41,12.80
2017,10,27,10,42,12.80
2017,10,27,10,43,12.90
2017,10,27,10,44,12.90
2017,10,27,10,45,12.90
2017,10,27,10,46,12.90
2017,10,27,10,47,12.90
2017,10,27,10,48,12.90
2017,10,27,10,49,12.90
2017,10,27,10,50,12.90
2017,10,27,10,51,12.90
2017,10,27,10,52,12.90
2017,10,27,10,53,12.80
2017,10,27,10,54,12.80
2017,10,27,10,55,12.80
2017,10,27,10,56,12.80
2017,10,27,10,57,12.80
2017,10,27,10,58,12.80
2017,10,27,10,59,12.80
2017,10,27,11,00,12.70
2017,10,27,11,01,12.70
2017,10,27,11,02,12.80
2017,10,27,11,03,12.80
2017,10,27,11,04,12.90
2017,10,27,11,05,13.00
2017,10,27,11,06,13.00
2017,10,27,11,07,13.10
2017,10,27,11,08,13.10
2017,10,27,11,09,13.20
2017,10,27,11,10,13.20
2017,10,27,11,11,13.30
2017,10,27,11,12,13.40
2017,10,27,11,13,13.40
2017,10,27,11,14,13.40
2017,10,27,11,15,13.40
2017,10,27,11,16,13.50
2017,10,27,11,17,13.50
2017,10,27,11,18,13.60
2017,10,27,11,19,13.70
2017,10,27,11,20,13.70
2017,10,27,11,21,13.80
2017,10,27,11,22,13.90
2017,10,27,11,23,13.90
2017,10,27,11,24,13.90
2017,10,27,11,25,13.90
2017,10,27,11,26,13.90
2017,10,27,11,27,13.90
2017,10,27,11,28,14.00
2017,10,27,11,29,14.00
2017,10,27,11,30,14.00
2017,10,27,11,31,14.10
2017,10,27,11,32,14.10
2017,10,27,11,33,14.10
2017,10,27,11,34,14.10
2017,10,27,11,35,14.00
2017,10,27,11,36,14.00
2017,10,27,11,37,13.90
2017,10,27,11,38,13.90
2017,10,27,11,39,13.90
2017,10,27,11,40,13.90
2017,10,27,11,41,14.00
2017,10,27,11,42,14.00
2017,10,27,11,43,14.00
2017,10,27,11,44,14.10
2017,10,27,11,45,14.10
2017,10,27,11,46,14.10
2017,10,27,11,47,14.20
2017,10,27,11,48,14.30
2017,10,27,11,49,14.40
2017,10,27,11,50,14.40
2017,10,27,11,51,14.50
2017,10,27,11,52,14.60
2017,10,27,11,53,14.60
2017,10,27,11,54,14.70
2017,10,27,11,55,14.80
2017,10,27,11,56,14.90
2017,10,27,11,57,15.00
2017,10,27,11,58,15.00
2017,10,27,11,59,15.00
2017,10,27,12,00,15.00
2017,10,27,12,01,15.10
2017,10,27,12,02,15.20
2017,10,27,12,03,15.30
2017,10,27,12,04,15.40
2017,10,27,12,05,15.50
2017,10,27,12,06,15.60
2017,10,27,12,07,15.70
2017,10,27,12,08,15.80
2017,10,27,12,09,15.90
2017,10,27,12,10,16.00
2017,10,27,12,11,16.20
2017,10,27,12,12,16.30
2017,10,27,12,13,16.40
2017,10,27,12,14,16.50
2017,10,27,12,15,16.60
2017,10,27,12,16,16.70
2017,10,27,12,17,16.80
2017,10,27,12,18,16.80
2017,10,27,12,19,16.90
2017,10,27,12,20,17.00
2017,10,27,12,21,17.00
2017,10,27,12,22,17.10
2017,10,27,12,23,17.10
2017,10,27,12,24,17.20
2017,10,27,12,25,17.20
2017,10,27,12,26,17.30
2017,10,27,12,27,17.30
2017,10,27,12,28,17.40
2017,10,27,12,29,17.40
2017,10,27,12,30,17.50
2017,10,27,12,31,17.50
2017,10,27,12,32,17.60
2017,10,27,12,33,17.70
2017,10,27,12,34,17.70
2017,10,27,12,35,17.70
2017,10,27,12,36,17.70
2017,10,27,12,37,17.70
2017,10,27,12,38,17.70
2017,10,27,12,39,17.70
2017,10,27,12,40,17.70
2017,10,27,12,41,17.70
2017,10,27,12,42,17.70
2017,10,27,12,43,17.80
2017,10,27,12,44,17.80
2017,10,27,12,45,17.80
2017,10,27,12,46,17.80
2017,10,27,12,47,17.80
2017,10,27,12,48,17.80
2017,10,27,12,49,17.80
2017,10,27,12,50,17.80
2017,10,27,12,51,17.70
2017,10,27,12,52,17.80
2017,10,27,12,53,17.80
2017,10,27,12,54,17.80
2017,10,27,12,55,17.80
2017,10,27,12,56,17.80
2017,10,27,12,57,17.80
2017,10,27,12,58,17.80
2017,10,27,12,59,17.80
2017,10,27,13,00,17.80
2017,10,27,13,01,17.80
2017,10,27,13,02,17.80
2017,10,27,13,03,17.80
2017,10,27,13,04,17.80
2017,10,27,13,05,17.90
2017,10,27,13,06,17.90
2017,10,27,13,07,17.90
2017,10,27,13,08,18.00
2017,10,27,13,09,18.00
2017,10,27,13,10,18.10
2017,10,27,13,11,18.10
2017,10,27,13,12,18.20
2017,10,27,13,13,18.20
2017,10,27,13,14,18.20
2017,10,27,13,15,18.20
2017,10,27,13,16,18.20
2017,10,27,13,17,18.30
2017,10,27,13,18,18.30
2017,10,27,13,19,18.30
2017,10,27,13,20,18.30
2017,10,27,13,21,18.30
2017,10,27,13,22,18.30
2017,10,27,13,23,18.40
2017,10,27,13,24,18.40
2017,10,27,13,25,18.40
2017,10,27,13,26,18.40
2017,10,27,13,27,18.40
2017,10,27,13,28,18.50
2017,10,27,13,29,18.50
2017,10,27,13,30,18.60
2017,10,27,13,31,18.60
2017,10,27,13,32,18.60
2017,10,27,13,33,18.60
2017,10,27,13,34,18.60
2017,10,27,13,35,18.50
2017,10,27,13,36,18.50
2017,10,27,13,37,18.50
2017,10,27,13,38,18.50
2017,10,27,13,39,18.50
2017,10,27,13,40,18.60
2017,10,27,13,41,18.60
2017,10,27,13,42,18.60
2017,10,27,13,43,18.60
2017,10,27,13,44,18.60
2017,10,27,13,45,18.70
2017,10,27,13,46,18.70
2017,10,27,13,47,18.70
2017,10,27,13,48,18.80
2017,10,27,13,49,18.80
2017,10,27,13,50,18.80
2017,10,27,13,51,18.90
2017,10,27,13,52,18.90
2017,10,27,13,53,18.90
2017,10,27,13,54,18.90
2017,10,27,13,55,19.00
2017,10,27,13,56,19.00
2017,10,27,13,57,19.00
2017,10,27,13,58,19.00
2017,10,27,13,59,19.00
2017,10,27,14,00,19.00
2017,10,27,14,01,19.00
2017,10,27,14,02,18.90
2017,10,27,14,03,19.00
2017,10,27,14,04,19.00
2017,10,27,14,05,19.00
2017,10,27,14,06,19.00
2017,10,27,14,07,19.00
2017,10,27,14,08,19.10
2017,10,27,14,09,19.10
2017,10,27,14,10,19.10
2017,10,27,14,11,19.10
2017,10,27,14,12,19.10
2017,10,27,14,13,19.10
2017,10,27,14,14,19.20
2017,10,27,14,15,19.20
2017,10,27,14,16,19.20
2017,10,27,14,17,19.30
2017,10,27,14,18,19.30
2017,10,27,14,19,19.40
2017,10,27,14,20,19.40
2017,10,27,14,21,19.40
2017,10,27,14,22,19.50
2017,10,27,14,23,19.50
2017,10,27,14,24,19.60
2017,10,27,14,25,19.60
2017,10,27,14,26,19.60
2017,10,27,14,27,19.70
2017,10,27,14,28,19.70
2017,10,27,14,29,19.70
2017,10,27,14,30,19.80
2017,10,27,14,31,19.80
2017,10,27,14,32,19.80
2017,10,27,14,33,19.80
2017,10,27,14,34,19.80
2017,10,27,14,35,19.80
2017,10,27,14,36,19.80
2017,10,27,14,37,19.70
2017,10,27,14,38,19.70
2017,10,27,14,39,19.60
2017,10,27,14,40,19.50
2017,10,27,14,41,19.50
2017,10,27,14,42,19.40
2017,10,27,14,43,19.40
2017,10,27,14,44,19.40
2017,10,27,14,45,19.40
2017,10,27,14,46,19.40
2017,10,27,14,47,19.40
2017,10,27,14,48,19.40
2017,10,27,14,49,19.40
2017,10,27,14,50,19.40
2017,10,27,14,51,19.40
2017,10,27,14,52,19.40
2017,10,27,14,53,19.40
2017,10,27,14,54,19.40
2017,10,27,14,55,19.50
2017,10,27,14,56,19.50
2017,10,27,14,57,19.40
2017,10,27,14,58,19.30
2017,10,27,14,59,19.30
2017,10,27,15,00,19.30
2017,10,27,15,01,19.30
2017,10,27,15,02,19.20
2017,10,27,15,03,19.10
2017,10,27,15,04,19.10
2017,10,27,15,05,19.00
2017,10,27,15,06,19.00
2017,10,27,15,07,19.00
2017,10,27,15,08,19.00
2017,10,27,15,09,19.00
2017,10,27,15,10,19.10
2017,10,27,15,11,19.10
2017,10,27,15,12,19.20
2017,10,27,15,13,19.20
2017,10,27,15,14,19.20
2017,10,27,15,15,19.30
2017,10,27,15,16,19.30
2017,10,27,15,17,19.30
2017,10,27,15,18,19.30
2017,10,27,15,19,19.30
2017,10,27,15,20,19.30
2017,10,27,15,21,19.40
2017,10,27,15,22,19.40
2017,10,27,15,23,19.50
2017,10,27,15,24,19.50
2017,10,27,15,25,19.60
2017,10,27,15,26,19.70
2017,10,27,15,27,19.70
2017,10,27,15,28,19.70
2017,10,27,15,29,19.70
2017,10,27,15,30,19.70
2017,10,27,15,31,19.70
2017,10,27,15,32,19.70
2017,10,27,15,33,19.70
2017,10,27,15,34,19.70
2017,10,27,15,35,19.70
2017,10,27,15,36,19.70
2017,10,27,15,37,19.70
2017,10,27,15,38,19.70
2017,10,27,15,39,19.70
2017,10,27,15,40,19.70
2017,10,27,15,41,19.70
2017,10,27,15,42,19.60
2017,10,27,15,43,19.50
2017,10,27,15,44,19.40
2017,10,27,15,45,19.40
2017,10,27,15,46,19.30
2017,10,27,15,47,19.30
2017,10,27,15,48,19.30
2017,10,27,15,49,19.30
2017,10,27,15,50,19.30
2017,10,27,15,51,19.30
2017,10,27,15,52,19.30
2017,10,27,15,53,19.30
2017,10,27,15,54,19.40
2017,10,27,15,55,19.40
2017,10,27,15,56,19.40
2017,10,27,15,57,19.30
2017,10,27,15,58,19.20
2017,10,27,15,59,19.00
2017,10,27,16,00,18.90
2017,10,27,16,01,18.80
2017,10,27,16,02,18.80
2017,10,27,16,03,18.70
2017,10,27,16,04,18.70
2017,10,27,16,05,18.70
2017,10,27,16,06,18.60
2017,10,27,16,07,18.60
2017,10,27,16,08,18.60
2017,10,27,16,09,18.60
2017,10,27,16,10,18.60
2017,10,27,16,11,18.60
2017,10,27,16,12,18.50
2017,10,27,16,13,18.50
2017,10,27,16,14,18.40
2017,10,27,16,15,18.40
2017,10,27,16,16,18.30
2017,10,27,16,17,18.20
2017,10,27,16,18,18.10
2017,10,27,16,19,18.00
2017,10,27,16,20,17.80
2017,10,27,16,21,17.70
2017,10,27,16,22,17.50
2017,10,27,16,23,17.40
2017,10,27,16,24,17.30
2017,10,27,16,25,17.20
2017,10,27,16,26,17.10
2017,10,27,16,27,17.00
2017,10,27,16,28,17.00
2017,10,27,16,29,16.90
2017,10,27,16,30,16.80
2017,10,27,16,31,16.80
2017,10,27,16,32,16.70
2017,10,27,16,33,16.70
2017,10,27,16,34,16.60
2017,10,27,16,35,16.60
2017,10,27,16,36,16.60
2017,10,27,16,37,16.60
2017,10,27,16,38,16.60
2017,10,27,16,39,16.60
2017,10,27,16,40,16.60
2017,10,27,16,41,16.60
2017,10,27,16,42,16.60
2017,10,27,16,43,16.60
2017,10,27,16,44,16.60
2017,10,27,16,45,16.60
2017,10,27,16,46,16.50
2017,10,27,16,47,16.50
2017,10,27,16,48,16.50
2017,10,27,16,49,16.50
2017,10,27,16,50,16.40
2017,10,27,16,51,16.40
2017,10,27,16,52,16.40
2017,10,27,16,53,16.40
2017,10,27,16,54,16.40
2017,10,27,16,55,16.40
2017,10,27,16,56,16.40
2017,10,27,16,57,16.40
2017,10,27,16,58,16.40
2017,10,27,16,59,16.30
2017,10,27,17,00,16.30
2017,10,27,17,01,16.30
2017,10,27,17,02,16.30
2017,10,27,17,03,16.30
2017,10,27,17,04,16.20
2017,10,27,17,05,16.20
2017,10,27,17,06,16.10
2017,10,27,17,07,16.10
2017,10,27,17,08,16.00
2017,10,27,17,09,16.00
2017,10,27,17,10,15.90
2017,10,27,17,11,15.90
2017,10,27,17,12,15.80
2017,10,27,17,13,15.80
2017,10,27,17,14,15.70
2017,10,27,17,15,15.70
2017,10,27,17,16,15.60
2017,10,27,17,17,15.50
2017,10,27,17,18,15.50
2017,10,27,17,19,15.40
2017,10,27,17,20,15.30
2017,10,27,17,21,15.30
2017,10,27,17,22,15.20
2017,10,27,17,23,15.10
2017,10,27,17,24,15.00
2017,10,27,17,25,15.00
2017,10,27,17,26,15.00
2017,10,27,17,27,14.80
2017,10,27,17,28,14.80
2017,10,27,17,29,14.70
2017,10,27,17,30,14.60
2017,10,27,17,31,14.50
2017,10,27,17,32,14.50
2017,10,27,17,33,14.40
2017,10,27,17,34,14.40
2017,10,27,17,35,14.30
2017,10,27,17,36,14.30